[[{"header":{"parameterUnit":"m.s-1","parameterCategory":1,"la1":30.2991,"la2":30.254,"lo1":-89.0895,"lo2":-89.0444,"dy":0.0017,"dx":0.0017,"nx":28,"ny":28,"refTime":"2024-06-12T03:00:00:Z","depth":0,"parameterNumber":2,"parameterNumberName":"U-component_of_WINDS"},"data":[0,0,0,0,0,0,0,0,0,0,0,0,0,0,0,0,0,0,0,0,0,0,0,0,0,0,0,0,0,0,0,0,0,0,0,0,0,0,0,0,0,0,0,0,0,0,0,0,0,0,0,0,0,0,0,0,0,0,-0.9807,-0.9808,0,-0.9907,-0.9908,-0.991,-0.9882,-0.988,-0.9878,-0.9876,-0.9983,-0.9987,-0.9992,0,0,0,0,0,0,0,0,0,0,0,0,0,-0.9592,-0.9597,-0.9806,-0.9808,-0.9809,-0.9907,-0.9908,-0.991,-0.9882,-0.988,-0.9877,-0.9875,-0.9981,-0.9987,-0.9993,0,0,0,0,0,0,0,0,0,0,0,0,0,-0.9689,-0.9598,-0.9806,-0.9807,-0.9808,-0.9907,-0.9909,-0.991,-0.9883,-0.988,-0.9877,-0.9874,-0.9979,-0.9986,-0.9993,-1.0099,0,0,-1.0015,-1.0018,0,0,0,0,0,0,0,0,-0.9683,-0.9697,-0.9806,-0.9807,-0.9809,-0.9879,-0.9872,-0.9974,-0.9884,-0.9855,-0.9876,-0.9872,-0.9951,-0.996,-0.9986,-1.0104,-1.0108,-1.0016,-1.002,-1.0023,-1.0025,0,0,0,0,0,0,0,-0.9677,-0.9692,-0.9846,-0.9807,-0.9809,-0.9803,-0.9813,-0.9891,-0.9919,-0.9857,-0.9855,-0.9867,-0.9951,-0.9979,-0.9988,-1.011,-1.0016,-1.0022,-1.0026,-1.0029,-1.0318,-1.0321,0,0,0,0,0,0,-0.9668,-0.9687,-0.9843,-0.9849,-0.9737,-0.9809,-0.9821,-0.9859,-0.9918,-0.9924,-0.987,-0.9866,-0.9969,-0.998,-0.9992,-1.0119,-1.0023,-1.003,-1.0034,-1.0315,-1.0319,-1.0322,0,0,0,0,0,0,-0.9664,-0.9683,-0.9839,-0.9768,-0.9787,-0.9816,-0.986,-0.9863,-0.9891,-0.9928,-0.9933,-0.9893,-0.9967,-0.9982,-1.0072,-1.0122,-1.0033,-1.0039,-1.0311,-1.0316,-1.032,-1.0374,0,0,0,0,0,0,-0.9658,-0.9681,-0.9721,-0.9769,-0.9791,-0.9917,-0.9863,-0.9867,-0.9903,-0.9898,-0.9951,-0.9957,-0.9965,-1.0061,-1.0079,-1.0131,-1.0045,-1.0306,-1.0313,-1.0319,-1.0368,-1.038,-1.0391,0,0,0,0,0,-0.965,-0.9733,-0.9723,-0.9743,-0.9841,-0.992,-0.9933,-0.994,-0.9907,-0.9948,-0.9971,-0.9955,-1.0113,-1.0071,-1.009,-1.0145,-1.0303,-1.0311,-1.0318,-1.0363,-1.0378,-1.0391,0,0,0,0,0,0,-0.9693,-0.974,-0.9729,-0.983,-0.9871,-0.9915,-0.9967,-0.9956,-1.0009,-1.0002,-1.001,-1.0022,-1.0114,-1.0138,-1.009,-1.0249,-1.0204,-1.0215,-1.0231,-1.0245,-1.0256,-1.025,-1.0051,0,0,0,0,0,-0.9714,-0.9773,-0.981,-0.9896,-0.9917,-0.9938,-0.9973,-0.9974,-1.0018,-1.0036,-1.0065,-1.0109,-1.0169,-1.0208,-1.0265,-1.037,-1.0382,-1.0417,-1.0429,-1.0438,-1.0449,-1.0506,-1.0523,-1.0347,-1.0347,-1.0347,0,0,-0.9758,-0.9791,-0.9828,-0.9905,-0.9937,-0.9999,-0.9953,-1.0021,-1.0067,-1.0046,-1.0133,-1.0156,-1.0205,-1.0303,-1.0348,-1.0326,-1.0499,-1.0448,-1.0455,-1.0461,-1.0516,-1.0532,-1.0547,-1.0353,-1.0352,-1.0351,0,0,-0.987,-0.9901,-0.9975,-1.0007,-1.0055,-1.0069,-1.0086,-1.0132,-1.0146,-1.0233,-1.0218,-1.0273,-1.0376,-1.0411,-1.0443,-1.0565,-1.0553,-1.0584,-1.0645,-1.0701,-1.0714,-1.0727,-1.0771,-1.0787,-1.0594,-1.0594,-1.0594,0,-0.992,-1.0011,-1.0015,-1.0083,-1.0117,-1.0099,-1.0174,-1.0206,-1.0271,-1.0296,-1.027,-1.0397,-1.0429,-1.0535,-1.0564,-1.059,-1.0611,-1.0579,-1.0712,-1.0724,-1.0736,-1.0778,-1.0795,-1.0598,-1.0597,-1.0597,-1.0596,0,-1.007,-1.0133,-1.0187,-1.0249,-1.0289,-1.0361,-1.0375,-1.0415,-1.0413,-1.0429,-1.0517,-1.0554,-1.0618,-1.0642,-1.0641,-1.0748,-1.0733,-1.0709,-1.0664,-1.0756,-1.0796,-1.0812,-1.0603,-1.0601,-1.06,-1.0599,0,0,-1.0215,-1.0275,-1.0295,-1.0322,-1.0373,-1.0423,-1.0493,-1.0554,-1.0588,-1.0633,-1.0693,-1.0778,-1.0756,-1.0792,-1.0794,-1.0843,-1.0938,-1.0813,-1.0814,-1.0836,-1.1059,-1.1077,-1.1096,-1.0929,-1.0932,-1.0935,-1.1055,0,-1.0333,-1.0456,-1.0459,-1.0572,-1.0631,-1.0613,-1.0674,-1.0712,-1.0728,-1.0781,-1.0799,-1.086,-1.0826,-1.0847,-1.0894,-1.0917,-1.0983,-1.0908,-1.0986,-1.0989,-1.0976,-1.1117,-1.1137,-1.1249,-1.107,-1.1073,-1.1075,0,-1.0487,-1.0535,-1.0653,-1.0694,-1.0719,-1.0774,-1.0829,-1.0879,-1.0922,-1.093,-1.0968,-1.0963,-1.1035,-1.0985,-1.1085,-1.1034,-1.1065,-1.1081,-1.1085,-1.1094,-1.1039,-1.1131,-1.1285,-1.1302,-1.11,-1.1098,-1.1096,0,-1.0583,-1.0676,-1.0759,-1.0782,-1.0832,-1.0871,-1.0894,-1.0933,-1.0969,-1.1017,-1.104,-1.1097,-1.1128,-1.1172,-1.1182,-1.1145,-1.1282,-1.1233,-1.1292,-1.1292,-1.1324,-1.1322,-1.1486,-1.1341,-1.1341,-1.1341,-1.134,0,-1.0715,-1.0788,-1.0802,-1.0853,-1.0934,-1.0937,-1.1018,-1.1038,-1.1072,-1.1127,-1.1115,-1.1167,-1.1176,-1.123,-1.1238,-1.132,-1.1334,-1.1343,-1.1345,-1.1345,-1.1344,-1.1368,-1.1361,-1.1345,-1.1344,-1.1343,-1.1343,0,-1.0836,-1.0848,-1.0937,-1.0976,-1.0987,-1.1045,-1.1079,-1.1128,-1.1141,-1.1211,-1.1227,-1.1249,-1.1312,-1.1325,-1.1401,-1.1406,-1.1503,-1.1496,-1.1489,-1.1489,-1.1547,-1.1542,-1.1733,-1.1759,-1.1596,-1.1598,-1.1599,0,-1.0921,-1.0976,-1.102,-1.1055,-1.1079,-1.1136,-1.1171,-1.1176,-1.1214,-1.1265,-1.1308,-1.1369,-1.1418,-1.1519,-1.1543,-1.16,-1.1595,-1.1658,-1.1604,-1.1602,-1.1597,-1.1594,-1.16,-1.1669,-1.1671,-1.1672,-1.1674,0,-1.1069,-1.1072,-1.1123,-1.1176,-1.1219,-1.1261,-1.1302,-1.1331,-1.1341,-1.1384,-1.1447,-1.1485,-1.156,-1.1621,-1.1678,-1.1702,-1.169,-1.169,-1.1707,-1.1709,-1.1702,-1.1707,-1.1518,-1.1686,-1.1685,-1.1684,-1.1683,-1.1683,-1.1176,-1.1224,-1.1262,-1.1319,-1.1349,-1.1387,-1.1434,-1.1453,-1.1505,-1.1566,-1.1565,-1.1634,-1.1674,-1.1748,-1.1775,-1.183,-1.181,-1.1834,-1.1841,-1.1847,-1.1853,-1.1692,-1.184,-1.1839,-1.1839,-1.1839,-1.1839,0,-1.1325,-1.1347,-1.14,-1.1456,-1.1501,-1.1482,-1.1526,-1.1565,-1.1625,-1.1663,-1.171,-1.1782,-1.1841,-1.1867,-1.1925,-1.1964,-1.196,-1.1979,-1.1977,-1.1983,-1.1867,-1.1847,-1.1981,-1.1981,-1.1981,-1.1981,-1.1981,-1.1981,-1.1408,-1.1488,-1.1495,-1.159,-1.1612,-1.1679,-1.1705,-1.174,-1.1769,-1.185,-1.1897,-1.1913,-1.1947,-1.2006,-1.2059,-1.2065,-1.2088,-1.211,-1.2114,-1.2005,-1.1991,-1.1977,-1.1959,-1.2114,-1.2114,-1.2225,-1.2226,-1.2227]},{"header":{"parameterUnit":"m.s-1","parameterCategory":1,"la1":30.2991,"la2":30.254,"lo1":-89.0895,"lo2":-89.0444,"dy":0.0017,"dx":0.0017,"nx":28,"ny":28,"refTime":"2024-06-12T03:00:00:Z","depth":0,"parameterNumber":3,"parameterNumberName":"V-component_of_WINDS"},"data":[0,0,0,0,0,0,0,0,0,0,0,0,0,0,0,0,0,0,0,0,0,0,0,0,0,0,0,0,0,0,0,0,0,0,0,0,0,0,0,0,0,0,0,0,0,0,0,0,0,0,0,0,0,0,0,0,0,0,-2.4731,-2.4732,0,-2.4765,-2.4765,-2.4765,-2.4744,-2.4743,-2.4742,-2.4741,-2.4773,-2.4775,-2.4776,0,0,0,0,0,0,0,0,0,0,0,0,0,-2.4647,-2.4649,-2.4731,-2.4732,-2.4732,-2.4764,-2.4765,-2.4765,-2.4744,-2.4743,-2.4742,-2.4741,-2.4772,-2.4774,-2.4777,0,0,0,0,0,0,0,0,0,0,0,0,0,-2.4682,-2.4649,-2.4731,-2.4726,-2.4725,-2.4764,-2.4765,-2.4765,-2.4744,-2.4743,-2.4741,-2.474,-2.4772,-2.4774,-2.4777,-2.4823,0,0,-2.4785,-2.4786,0,0,0,0,0,0,0,0,-2.468,-2.4685,-2.4726,-2.4726,-2.4726,-2.4749,-2.4747,-2.4785,-2.4745,-2.4737,-2.4741,-2.4739,-2.4766,-2.4769,-2.4778,-2.4824,-2.4825,-2.4785,-2.4787,-2.4788,-2.4789,0,0,0,0,0,0,0,-2.4678,-2.4684,-2.4744,-2.4727,-2.4727,-2.472,-2.4724,-2.4754,-2.4759,-2.4738,-2.4736,-2.4741,-2.4766,-2.4776,-2.4779,-2.4826,-2.4785,-2.4787,-2.4789,-2.479,-2.4909,-2.4911,0,0,0,0,0,0,-2.4676,-2.4682,-2.4743,-2.4745,-2.4699,-2.4723,-2.4727,-2.4743,-2.4759,-2.476,-2.4742,-2.4739,-2.4772,-2.4776,-2.478,-2.4833,-2.4788,-2.479,-2.4792,-2.4908,-2.491,-2.4911,0,0,0,0,0,0,-2.4675,-2.4682,-2.4742,-2.4713,-2.472,-2.4726,-2.4744,-2.4744,-2.4754,-2.4762,-2.4763,-2.4751,-2.4771,-2.4776,-2.4812,-2.4834,-2.4792,-2.4794,-2.4906,-2.4908,-2.4911,-2.4942,0,0,0,0,0,0,-2.4672,-2.4681,-2.47,-2.4714,-2.4722,-2.4774,-2.4746,-2.4746,-2.4759,-2.4757,-2.4771,-2.4772,-2.477,-2.4808,-2.4815,-2.4837,-2.4796,-2.4904,-2.4907,-2.491,-2.4939,-2.4945,-2.495,0,0,0,0,0,-2.4669,-2.4707,-2.4701,-2.4708,-2.4745,-2.4776,-2.478,-2.4778,-2.4761,-2.4779,-2.4784,-2.4772,-2.4831,-2.4812,-2.4819,-2.4843,-2.4902,-2.4906,-2.491,-2.4936,-2.4944,-2.495,0,0,0,0,0,0,-2.4694,-2.4709,-2.4702,-2.4745,-2.476,-2.4772,-2.4794,-2.4786,-2.4805,-2.4801,-2.4797,-2.48,-2.4837,-2.4844,-2.4822,-2.4887,-2.4864,-2.4869,-2.4882,-2.4889,-2.4894,-2.4892,-2.4798,0,0,0,0,0,-2.4705,-2.473,-2.4741,-2.4778,-2.4785,-2.4789,-2.4802,-2.4799,-2.4813,-2.4819,-2.4826,-2.484,-2.4861,-2.4876,-2.4896,-2.494,-2.4942,-2.4959,-2.4965,-2.497,-2.4974,-2.4996,-2.5004,-2.4923,-2.4923,-2.4923,0,0,-2.4727,-2.4738,-2.4754,-2.4783,-2.4794,-2.4818,-2.4794,-2.4821,-2.4839,-2.4823,-2.4857,-2.4863,-2.4877,-2.4917,-2.4935,-2.4923,-2.4997,-2.4974,-2.4978,-2.498,-2.5001,-2.5008,-2.5015,-2.4926,-2.4925,-2.4925,0,0,-2.478,-2.4791,-2.4823,-2.4834,-2.4851,-2.4853,-2.486,-2.4874,-2.4877,-2.4912,-2.49,-2.4921,-2.4958,-2.4969,-2.4979,-2.5035,-2.5024,-2.5042,-2.5071,-2.5093,-2.5099,-2.5105,-2.5124,-2.5131,-2.5046,-2.5046,-2.5046,0,-2.4805,-2.4843,-2.484,-2.4868,-2.4881,-2.4868,-2.4899,-2.491,-2.4932,-2.4941,-2.4928,-2.4974,-2.4983,-2.5024,-2.5038,-2.5047,-2.5055,-2.504,-2.5099,-2.5104,-2.511,-2.5127,-2.5135,-2.5048,-2.5048,-2.5048,-2.5048,0,-2.4872,-2.4898,-2.4921,-2.4943,-2.4959,-2.4988,-2.4989,-2.5005,-2.5001,-2.5004,-2.5038,-2.5049,-2.507,-2.508,-2.5076,-2.512,-2.5113,-2.51,-2.5076,-2.5119,-2.5136,-2.5143,-2.5051,-2.505,-2.505,-2.5049,0,0,-2.4941,-2.4961,-2.497,-2.4979,-2.4996,-2.5016,-2.5044,-2.5066,-2.5079,-2.5095,-2.5117,-2.5149,-2.5137,-2.5149,-2.5146,-2.5165,-2.5207,-2.5149,-2.5149,-2.5158,-2.5255,-2.5264,-2.5272,-2.52,-2.5202,-2.5203,-2.5254,0,-2.4994,-2.5044,-2.5043,-2.5089,-2.5112,-2.51,-2.5125,-2.5137,-2.5141,-2.516,-2.5163,-2.5186,-2.5169,-2.5175,-2.5194,-2.5198,-2.5226,-2.5194,-2.522,-2.5221,-2.5216,-2.5281,-2.5291,-2.5338,-2.526,-2.5261,-2.5262,0,-2.5062,-2.508,-2.5129,-2.5142,-2.5151,-2.5174,-2.5193,-2.5212,-2.5226,-2.5227,-2.524,-2.5233,-2.5261,-2.5237,-2.5275,-2.5253,-2.5263,-2.5267,-2.5269,-2.527,-2.5244,-2.5283,-2.5354,-2.536,-2.5273,-2.5272,-2.5271,0,-2.5106,-2.5143,-2.5176,-2.5185,-2.5201,-2.5217,-2.5224,-2.5236,-2.5249,-2.5266,-2.5274,-2.5293,-2.5304,-2.5318,-2.5317,-2.53,-2.5354,-2.5331,-2.5355,-2.5355,-2.5366,-2.5365,-2.5438,-2.5375,-2.5375,-2.5375,-2.5375,0,-2.5164,-2.5194,-2.5196,-2.5217,-2.525,-2.5247,-2.5279,-2.5285,-2.5296,-2.5316,-2.5307,-2.5327,-2.5324,-2.5343,-2.5342,-2.5373,-2.5378,-2.5378,-2.5378,-2.5379,-2.5378,-2.5385,-2.5381,-2.5377,-2.5376,-2.5376,-2.5375,0,-2.5218,-2.5221,-2.5257,-2.5269,-2.5273,-2.5296,-2.5306,-2.5325,-2.5328,-2.5354,-2.536,-2.5364,-2.5386,-2.5387,-2.5412,-2.5411,-2.5448,-2.5444,-2.5443,-2.5442,-2.5465,-2.5463,-2.5544,-2.5554,-2.5485,-2.5486,-2.5487,0,-2.5255,-2.5278,-2.5293,-2.5306,-2.5314,-2.5336,-2.5349,-2.5348,-2.5361,-2.5378,-2.5395,-2.5416,-2.5433,-2.5469,-2.5473,-2.5492,-2.5488,-2.5515,-2.549,-2.549,-2.5487,-2.5485,-2.5486,-2.5519,-2.552,-2.5521,-2.5521,0,-2.5319,-2.5319,-2.5339,-2.5359,-2.5375,-2.539,-2.5404,-2.5416,-2.5415,-2.5431,-2.5454,-2.5467,-2.5493,-2.5514,-2.5532,-2.5538,-2.5529,-2.5529,-2.5535,-2.5536,-2.5534,-2.5534,-2.5455,-2.5527,-2.5526,-2.5526,-2.5526,-2.5525,-2.5365,-2.5384,-2.5397,-2.5419,-2.543,-2.5443,-2.5461,-2.5466,-2.5485,-2.5506,-2.5504,-2.5529,-2.5541,-2.5565,-2.5573,-2.5591,-2.5582,-2.5591,-2.5593,-2.5596,-2.5597,-2.5532,-2.5595,-2.5595,-2.5595,-2.5594,-2.5594,0,-2.5427,-2.5435,-2.5455,-2.5475,-2.5492,-2.5484,-2.5499,-2.5513,-2.5535,-2.5548,-2.5564,-2.559,-2.561,-2.5616,-2.5635,-2.5649,-2.5645,-2.5654,-2.5652,-2.5653,-2.5606,-2.5598,-2.5656,-2.5656,-2.5656,-2.5656,-2.5656,-2.5656,-2.5461,-2.5493,-2.5495,-2.5531,-2.5539,-2.5563,-2.5573,-2.5585,-2.5594,-2.5623,-2.564,-2.5644,-2.5654,-2.5673,-2.5691,-2.5692,-2.5699,-2.5709,-2.5708,-2.5663,-2.5657,-2.5651,-2.5643,-2.5711,-2.5711,-2.5755,-2.5755,-2.5755]}]]